Time,TemperatureF,DewpointF,PressureIn,WindDirection,WindDirectionDegrees,WindSpeedMPH,WindSpeedGustMPH,Humidity,HourlyPrecipIn,Conditions,Clouds,dailyrainin,SolarRadiationWatts/m^2,SoftwareType,DateUTC
2013-03-02 00:02:00,21.0,21.0,-100.00,NW,319,0.0,0.0,99,0.00,,,0.00,0.000000,,2013-03-02 05:02:00,
2013-03-02 00:12:00,21.0,21.0,-100.00,NW,319,0.0,0.0,99,0.00,,,0.00,0.000000,,2013-03-02 05:12:00,
2013-03-02 00:32:00,20.0,20.0,-100.00,NW,320,0.0,0.0,98,0.00,,,0.00,0.000000,,2013-03-02 05:32:00,
2013-03-02 00:42:00,20.0,20.0,-100.00,NW,320,0.0,0.0,98,0.00,,,0.00,0.000000,,2013-03-02 05:42:00,
2013-03-02 00:52:00,20.0,20.0,-100.00,NW,320,0.0,0.0,98,0.00,,,0.00,0.000000,,2013-03-02 05:52:00,
2013-03-02 01:02:00,20.0,20.0,-100.00,NW,320,0.0,0.0,98,0.00,,,0.00,0.000000,,2013-03-02 06:02:00,
2013-03-02 01:11:00,20.0,20.0,-100.00,NW,320,0.0,0.0,98,0.00,,,0.00,0.000000,,2013-03-02 06:11:00,
2013-03-02 01:32:00,19.0,18.0,-100.00,NW,321,0.0,0.0,97,0.00,,,0.00,0.000000,,2013-03-02 06:32:00,
2013-03-02 01:42:00,19.0,18.0,-100.00,NW,321,0.0,0.0,97,0.00,,,0.00,0.000000,,2013-03-02 06:42:00,
2013-03-02 01:52:00,19.0,18.0,-100.00,NW,321,0.0,0.0,97,0.00,,,0.00,0.000000,,2013-03-02 06:52:00,
2013-03-02 02:02:00,19.0,18.0,-100.00,NW,321,0.0,0.0,97,0.00,,,0.00,0.000000,,2013-03-02 07:02:00,
2013-03-02 02:11:00,19.0,18.0,-100.00,NW,321,0.0,0.0,97,0.00,,,0.00,0.000000,,2013-03-02 07:11:00,
2013-03-02 02:32:00,19.0,18.0,-100.00,NW,321,0.0,0.0,95,0.00,,,0.00,0.000000,,2013-03-02 07:32:00,
2013-03-02 02:42:00,19.0,18.0,-100.00,NW,321,0.0,0.0,95,0.00,,,0.00,0.000000,,2013-03-02 07:42:00,
2013-03-02 02:52:00,19.0,18.0,-100.00,NW,321,0.0,0.0,95,0.00,,,0.00,0.000000,,2013-03-02 07:52:00,
2013-03-02 03:01:00,19.0,18.0,-100.00,NW,321,0.0,0.0,95,0.00,,,0.00,0.000000,,2013-03-02 08:01:00,
2013-03-02 03:11:00,19.0,18.0,-100.00,NW,321,0.0,0.0,95,0.00,,,0.00,0.000000,,2013-03-02 08:11:00,
2013-03-02 03:43:00,19.0,18.0,-100.00,NW,321,0.0,0.0,97,0.00,,,0.00,0.000000,,2013-03-02 08:43:00,
2013-03-02 03:52:00,19.0,18.0,-100.00,NW,321,0.0,0.0,97,0.00,,,0.00,0.000000,,2013-03-02 08:52:00,
2013-03-02 04:02:00,19.0,18.0,-100.00,NW,321,0.0,0.0,97,0.00,,,0.00,0.000000,,2013-03-02 09:02:00,
2013-03-02 04:11:00,19.0,18.0,-100.00,NW,321,0.0,0.0,97,0.00,,,0.00,0.000000,,2013-03-02 09:11:00,
2013-03-02 04:15:00,19.0,18.0,-100.00,NW,322,0.0,0.0,97,0.00,,,0.00,0.000000,,2013-03-02 09:15:00,
2013-03-02 04:32:00,19.0,18.0,-100.00,NW,322,0.0,0.0,97,0.00,,,0.00,0.000000,,2013-03-02 09:32:00,
2013-03-02 04:42:00,19.0,18.0,-100.00,NW,322,0.0,0.0,97,0.00,,,0.00,0.000000,,2013-03-02 09:42:00,
2013-03-02 04:52:00,19.0,18.0,-100.00,NW,322,0.0,0.0,97,0.00,,,0.00,0.000000,,2013-03-02 09:52:00,
2013-03-02 05:01:00,19.0,18.0,-100.00,NW,322,0.0,0.0,97,0.00,,,0.00,0.000000,,2013-03-02 10:01:00,
2013-03-02 05:43:00,19.0,19.0,-100.00,NW,324,0.0,0.0,98,0.00,,,0.00,0.000000,,2013-03-02 10:43:00,
2013-03-02 05:52:00,19.0,19.0,-100.00,NW,324,0.0,0.0,98,0.00,,,0.00,0.000000,,2013-03-02 10:52:00,
2013-03-02 06:01:00,19.0,19.0,-100.00,NW,324,0.0,0.0,98,0.00,,,0.00,0.000000,,2013-03-02 11:01:00,
2013-03-02 06:11:00,19.0,19.0,-100.00,NW,324,0.0,0.0,98,0.00,,,0.00,0.000000,,2013-03-02 11:11:00,
2013-03-02 06:32:00,18.0,18.0,-100.00,NW,323,0.0,0.0,100,0.00,,,0.00,0.000000,,2013-03-02 11:32:00,
2013-03-02 06:42:00,18.0,18.0,-100.00,NW,323,0.0,0.0,100,0.00,,,0.00,0.000000,,2013-03-02 11:42:00,
2013-03-02 06:52:00,18.0,18.0,-100.00,NW,323,0.0,0.0,100,0.00,,,0.00,0.000000,,2013-03-02 11:52:00,
2013-03-02 07:02:00,18.0,18.0,-100.00,NW,323,0.0,0.0,100,0.00,,,0.00,0.000000,,2013-03-02 12:02:00,
2013-03-02 07:11:00,18.0,18.0,-100.00,NW,323,0.0,0.0,100,0.00,,,0.00,0.000000,,2013-03-02 12:11:00,
2013-03-02 07:33:00,18.0,18.0,-100.00,NW,320,0.0,0.0,100,0.00,,,0.00,1.000000,,2013-03-02 12:33:00,
2013-03-02 07:43:00,18.0,18.0,-100.00,NW,320,0.0,0.0,100,0.00,,,0.00,1.000000,,2013-03-02 12:43:00,
2013-03-02 07:53:00,18.0,18.0,-100.00,NW,320,0.0,0.0,100,0.00,,,0.00,1.000000,,2013-03-02 12:53:00,
2013-03-02 08:01:00,18.0,18.0,-100.00,NW,320,0.0,0.0,100,0.00,,,0.00,1.000000,,2013-03-02 13:01:00,
2013-03-02 08:11:00,18.0,18.0,-100.00,NW,320,0.0,0.0,100,0.00,,,0.00,1.000000,,2013-03-02 13:11:00,
2013-03-02 08:42:00,17.0,17.0,-100.00,NW,324,0.0,0.0,100,0.00,,,0.00,20.000000,,2013-03-02 13:42:00,
2013-03-02 08:53:00,17.0,17.0,-100.00,NW,324,0.0,0.0,100,0.00,,,0.00,20.000000,,2013-03-02 13:53:00,
2013-03-02 09:01:00,17.0,17.0,-100.00,NW,324,0.0,0.0,100,0.00,,,0.00,20.000000,,2013-03-02 14:01:00,
2013-03-02 09:11:00,17.0,17.0,-100.00,NW,324,0.0,0.0,100,0.00,,,0.00,20.000000,,2013-03-02 14:11:00,
2013-03-02 09:32:00,20.0,19.0,-100.00,NW,316,0.0,0.0,95,0.00,,,0.00,131.000000,,2013-03-02 14:32:00,
2013-03-02 09:42:00,20.0,19.0,-100.00,NW,316,0.0,0.0,95,0.00,,,0.00,131.000000,,2013-03-02 14:42:00,
2013-03-02 09:52:00,20.0,19.0,-100.00,NW,316,0.0,0.0,95,0.00,,,0.00,131.000000,,2013-03-02 14:52:00,
2013-03-02 10:02:00,20.0,19.0,-100.00,NW,316,0.0,0.0,95,0.00,,,0.00,131.000000,,2013-03-02 15:02:00,
2013-03-02 10:11:00,20.0,19.0,-100.00,NW,316,0.0,0.0,95,0.00,,,0.00,131.000000,,2013-03-02 15:11:00,
2013-03-02 10:32:00,21.0,17.0,-100.00,NW,318,0.0,0.0,86,0.00,,,0.00,130.000000,,2013-03-02 15:32:00,
2013-03-02 10:42:00,21.0,17.0,-100.00,NW,318,0.0,0.0,86,0.00,,,0.00,130.000000,,2013-03-02 15:42:00,
2013-03-02 10:52:00,21.0,17.0,-100.00,NW,318,0.0,0.0,86,0.00,,,0.00,130.000000,,2013-03-02 15:52:00,
2013-03-02 11:02:00,21.0,17.0,-100.00,NW,318,0.0,0.0,86,0.00,,,0.00,130.000000,,2013-03-02 16:02:00,
2013-03-02 11:11:00,21.0,17.0,-100.00,NW,318,0.0,0.0,86,0.00,,,0.00,130.000000,,2013-03-02 16:11:00,
2013-03-02 11:32:00,22.0,17.0,-100.00,NNW,328,0.0,0.0,81,0.00,,,0.00,172.000000,,2013-03-02 16:32:00,
2013-03-02 11:42:00,22.0,17.0,-100.00,NNW,328,0.0,0.0,81,0.00,,,0.00,172.000000,,2013-03-02 16:42:00,
2013-03-02 11:52:00,22.0,17.0,-100.00,NNW,328,0.0,0.0,81,0.00,,,0.00,172.000000,,2013-03-02 16:52:00,
2013-03-02 12:01:00,22.0,17.0,-100.00,NNW,328,0.0,0.0,81,0.00,,,0.00,172.000000,,2013-03-02 17:01:00,
2013-03-02 12:12:00,22.0,17.0,-100.00,NNW,328,0.0,0.0,81,0.00,,,0.00,172.000000,,2013-03-02 17:12:00,
2013-03-02 12:42:00,24.0,17.0,-100.00,NW,316,0.0,0.0,74,0.00,,,0.00,298.000000,,2013-03-02 17:42:00,
2013-03-02 12:52:00,24.0,17.0,-100.00,NW,316,0.0,0.0,74,0.00,,,0.00,298.000000,,2013-03-02 17:52:00,
2013-03-02 13:02:00,24.0,17.0,-100.00,NW,316,0.0,0.0,74,0.00,,,0.00,298.000000,,2013-03-02 18:02:00,
2013-03-02 13:11:00,24.0,17.0,-100.00,NW,316,0.0,0.0,74,0.00,,,0.00,298.000000,,2013-03-02 18:11:00,
2013-03-02 13:32:00,23.0,17.0,-100.00,NW,321,0.0,0.0,79,0.00,,,0.00,197.000000,,2013-03-02 18:32:00,
2013-03-02 13:42:00,23.0,17.0,-100.00,NW,321,0.0,0.0,79,0.00,,,0.00,197.000000,,2013-03-02 18:42:00,
2013-03-02 13:52:00,23.0,17.0,-100.00,NW,321,0.0,0.0,79,0.00,,,0.00,197.000000,,2013-03-02 18:52:00,
2013-03-02 14:02:00,23.0,17.0,-100.00,NW,321,0.0,0.0,79,0.00,,,0.00,197.000000,,2013-03-02 19:02:00,
2013-03-02 14:12:00,23.0,17.0,-100.00,NW,321,0.0,0.0,79,0.00,,,0.00,197.000000,,2013-03-02 19:12:00,
2013-03-02 14:43:00,22.0,16.0,-100.00,NW,318,0.0,0.0,78,0.00,,,0.00,160.000000,,2013-03-02 19:43:00,
2013-03-02 14:52:00,22.0,16.0,-100.00,NW,318,0.0,0.0,78,0.00,,,0.00,160.000000,,2013-03-02 19:52:00,
2013-03-02 15:02:00,22.0,16.0,-100.00,NW,318,0.0,0.0,78,0.00,,,0.00,160.000000,,2013-03-02 20:02:00,
2013-03-02 15:11:00,22.0,16.0,-100.00,NW,318,0.0,0.0,78,0.00,,,0.00,160.000000,,2013-03-02 20:11:00,
2013-03-02 15:42:00,22.0,17.0,-100.00,NW,322,0.0,0.0,82,0.00,,,0.00,73.000000,,2013-03-02 20:42:00,
2013-03-02 15:53:00,22.0,17.0,-100.00,NW,322,0.0,0.0,82,0.00,,,0.00,73.000000,,2013-03-02 20:53:00,
2013-03-02 16:02:00,22.0,17.0,-100.00,NW,322,0.0,0.0,82,0.00,,,0.00,73.000000,,2013-03-02 21:02:00,
2013-03-02 16:12:00,22.0,17.0,-100.00,NW,322,0.0,0.0,82,0.00,,,0.00,73.000000,,2013-03-02 21:12:00,
2013-03-02 16:42:00,21.0,16.0,-100.00,NW,321,0.0,0.0,82,0.00,,,0.00,61.000000,,2013-03-02 21:42:00,
2013-03-02 16:52:00,21.0,16.0,-100.00,NW,321,0.0,0.0,82,0.00,,,0.00,61.000000,,2013-03-02 21:52:00,
2013-03-02 17:02:00,21.0,16.0,-100.00,NW,321,0.0,0.0,82,0.00,,,0.00,61.000000,,2013-03-02 22:02:00,
2013-03-02 17:11:00,21.0,16.0,-100.00,NW,321,0.0,0.0,82,0.00,,,0.00,61.000000,,2013-03-02 22:11:00,
2013-03-02 17:42:00,21.0,17.0,-100.00,NW,322,0.0,0.0,83,0.00,,,0.00,30.000000,,2013-03-02 22:42:00,
2013-03-02 17:52:00,21.0,17.0,-100.00,NW,322,0.0,0.0,83,0.00,,,0.00,30.000000,,2013-03-02 22:52:00,
2013-03-02 18:02:00,21.0,17.0,-100.00,NW,322,0.0,0.0,83,0.00,,,0.00,30.000000,,2013-03-02 23:02:00,
2013-03-02 18:11:00,21.0,17.0,-100.00,NW,322,0.0,0.0,83,0.00,,,0.00,30.000000,,2013-03-02 23:11:00,
2013-03-02 18:32:00,20.0,15.0,-100.00,NW,321,0.0,0.0,82,0.00,,,0.00,5.000000,,2013-03-02 23:32:00,
2013-03-02 18:42:00,20.0,15.0,-100.00,NW,321,0.0,0.0,82,0.00,,,0.00,5.000000,,2013-03-02 23:42:00,
2013-03-02 18:52:00,20.0,15.0,-100.00,NW,321,0.0,0.0,82,0.00,,,0.00,5.000000,,2013-03-02 23:52:00,
2013-03-02 19:02:00,20.0,15.0,-100.00,NW,321,0.0,0.0,82,0.00,,,0.00,5.000000,,2013-03-03 00:02:00,
2013-03-02 19:11:00,20.0,15.0,-100.00,NW,321,0.0,0.0,82,0.00,,,0.00,5.000000,,2013-03-03 00:11:00,
2013-03-02 19:42:00,20.0,17.0,-100.00,NW,322,0.0,0.0,87,0.00,,,0.00,0.000000,,2013-03-03 00:42:00,
2013-03-02 19:52:00,20.0,17.0,-100.00,NW,322,0.0,0.0,87,0.00,,,0.00,0.000000,,2013-03-03 00:52:00,
2013-03-02 20:01:00,20.0,17.0,-100.00,NW,322,0.0,0.0,87,0.00,,,0.00,0.000000,,2013-03-03 01:01:00,
2013-03-02 20:11:00,20.0,17.0,-100.00,NW,322,0.0,0.0,87,0.00,,,0.00,0.000000,,2013-03-03 01:11:00,
2013-03-02 20:42:00,18.0,16.0,-100.00,NW,320,0.0,0.0,92,0.00,,,0.00,0.000000,,2013-03-03 01:42:00,
2013-03-02 20:52:00,18.0,16.0,-100.00,NW,320,0.0,0.0,92,0.00,,,0.00,0.000000,,2013-03-03 01:52:00,
2013-03-02 21:01:00,18.0,16.0,-100.00,NW,320,0.0,0.0,92,0.00,,,0.00,0.000000,,2013-03-03 02:01:00,
2013-03-02 21:11:00,18.0,16.0,-100.00,NW,320,0.0,0.0,92,0.00,,,0.00,0.000000,,2013-03-03 02:11:00,
2013-03-02 21:32:00,18.0,15.0,-100.00,NW,318,0.0,0.0,88,0.00,,,0.00,0.000000,,2013-03-03 02:32:00,
2013-03-02 21:42:00,18.0,15.0,-100.00,NW,318,0.0,0.0,88,0.00,,,0.00,0.000000,,2013-03-03 02:42:00,
2013-03-02 21:52:00,18.0,15.0,-100.00,NW,318,0.0,0.0,88,0.00,,,0.00,0.000000,,2013-03-03 02:52:00,
2013-03-02 22:02:00,18.0,15.0,-100.00,NW,318,0.0,0.0,88,0.00,,,0.00,0.000000,,2013-03-03 03:02:00,
2013-03-02 22:11:00,18.0,15.0,-100.00,NW,318,0.0,0.0,88,0.00,,,0.00,0.000000,,2013-03-03 03:11:00,
2013-03-02 22:32:00,19.0,17.0,-100.00,NW,324,0.0,0.0,92,0.00,,,0.00,0.000000,,2013-03-03 03:32:00,
2013-03-02 22:42:00,19.0,17.0,-100.00,NW,324,0.0,0.0,92,0.00,,,0.00,0.000000,,2013-03-03 03:42:00,
2013-03-02 22:52:00,19.0,17.0,-100.00,NW,324,0.0,0.0,92,0.00,,,0.00,0.000000,,2013-03-03 03:52:00,
2013-03-02 23:01:00,19.0,17.0,-100.00,NW,324,0.0,0.0,92,0.00,,,0.00,0.000000,,2013-03-03 04:01:00,
2013-03-02 23:11:00,19.0,17.0,-100.00,NW,324,0.0,0.0,92,0.00,,,0.00,0.000000,,2013-03-03 04:11:00,
2013-03-02 23:32:00,18.0,18.0,-100.00,NW,323,0.0,0.0,100,0.00,,,0.00,0.000000,,2013-03-03 04:32:00,
2013-03-02 23:42:00,18.0,18.0,-100.00,NW,323,0.0,0.0,100,0.00,,,0.00,0.000000,,2013-03-03 04:42:00,
2013-03-02 23:52:00,18.0,18.0,-100.00,NW,323,0.0,0.0,100,0.00,,,0.00,0.000000,,2013-03-03 04:52:00,